Regional Weather Roundup
Issued by NWS Sterling, VA

Home | Current Version | Previous Version | Text Only | Print | Product List | Glossary Off
Versions: 1 2 3 4 5 6 7 8 9 10 11 12 13 14 15 16 17 18 19 20 21 22 23 24 25 26 27

000
ASUS41 KLWX 220310
RWRLWX

REGIONAL WEATHER ROUNDUP
NATIONAL WEATHER SERVICE BALTIMORE MD/WASHINGTON DC
1100 PM EDT TUE MAR 21 2017

Note: "FAIR" indicates few or no clouds below 12,000 feet
with no significant weather and/or obstructions to visibility.
 TC=TEMPERATURE CELSIUS

 * =Non NWS site. Station does not report precipitation (e.g. rain,
    snow, etc.), thunder, or fog.

DCZ001-MDZ009-015-VAZ040>042-051-053>054-220400-
WASHINGTON METRO

CITY           SKY/WX    TMP DP  RH WIND       PRES   REMARKS
WASHINGTON NAT CLOUDY    57  38  48 SW6       29.96R
DULLES         CLOUDY    56  37  49 W9        29.95R
ANDREWS AFB    MOCLDY    54  38  54 W10       29.94S
FT BELVOIR     MOCLDY    47  39  73 NW3       29.95S
QUANTICO       CLEAR     49  45  86 NW8       29.97F
COLLEGE PARK*  MOCLDY    54  37  54 CALM      29.94S
LEESBURG*      CLOUDY    55  43  62 SW5       29.95S
MANASSAS*      PTCLDY    54  38  54 S6        29.96S
GAITHERSBURG*  MOCLDY    54  36  50 W7        29.97S

$$

MDZ006>007-011-014-220400-
BALTIMORE METRO

CITY           SKY/WX    TMP DP  RH WIND       PRES   REMARKS
BWI AIRPORT    CLOUDY    53  40  61 SW7       29.92F
MD SCIENCE CTR   N/A     55  37  50 MISG      29.92F
MARTIN STATE   PTCLDY    52  41  66 S3        29.93S
ANNAPOLIS      PTCLDY    47  42  83 CALM      29.93F
FORT MEADE*    CLOUDY    46  41  81 SW6       29.95S

$$

MDZ012-015-019>023-220400-
MARYLAND EASTERN SHORE

CITY           SKY/WX    TMP DP  RH WIND       PRES   REMARKS
OCEAN CITY     CLEAR     39  35  86 SW3       29.95S
SALISBURY      CLEAR     42  39  89 S3        29.95S
BAY BRIDGE AP* CLOUDY    46  39  76 S3        29.94S
CAMBRIDGE*     CLEAR     45  41  87 CALM      29.96R
EASTON*        CLEAR     47  39  73 SW5       29.98S

$$

MDZ017>025-220400-
SOUTHERN MARYLAND

CITY           SKY/WX    TMP DP  RH WIND       PRES   REMARKS
PATUXENT RIVER MOCLDY    43  41  93 SW6       29.96R
ST INIGOES       N/A    N/A N/A N/A MISG      29.96R
LEONARDTOWN*   CLEAR     46  39  76 CALM      29.97S

$$

MDZ003>005-220400-
NORTH CENTRAL MARYLAND

CITY           SKY/WX    TMP DP  RH WIND       PRES   REMARKS
FREDERICK*     CLOUDY    54  43  66 W8        29.96R
HAGERSTOWN APT MOCLDY    52  39  61 W6        29.92S
WESTMINSTER*   MOCLDY    52  39  62 W6        29.91S

$$

MDZ501>502-220400-
WESTERN MARYLAND

CITY           SKY/WX    TMP DP  RH WIND       PRES   REMARKS
OAKLAND*       CLOUDY    39  39 100 W5        29.97R
CUMBERLAND*    CLOUDY    54  37  54 W9        30.00R

$$

VAZ025>031-220400-
SHENANDOAH VALLEY

CITY           SKY/WX    TMP DP  RH WIND       PRES   REMARKS
WINCHESTER*    CLOUDY    54  37  54 W9        29.96R
FRONT ROYAL*   CLOUDY    55  37  50 SW7       29.96R
LURAY*         CLOUDY    55  41  58 S8        29.98F
NEW MARKET*    CLOUDY    55  35  47 SW6       29.98F
STAUNTON*      CLOUDY    54  35  48 NW9       30.03S
WAYNESBORO*    CLOUDY    52  40  63 NW7       30.00S

$$

WVZ021-048>050-054>055-220400-
EASTERN WEST VIRGINIA PANHANDLE

CITY           SKY/WX    TMP DP  RH WIND       PRES   REMARKS
MARTINSBURG    CLOUDY    53  39  59 SW7       29.94R
PETERSBURG*    CLOUDY    55  40  55 W5        29.99F

$$

VAZ036>039-050-220400-
CENTRAL FOOTHILLS

CITY           SKY/WX    TMP DP  RH WIND       PRES   REMARKS
CHARLOTTESVILL PTCLDY    57  44  62 N6        29.97S
CULPEPER*      MOCLDY    48  43  81 CALM      29.97F
ORANGE*        PTCLDY    45  41  87 CALM      29.98F
GORDONSVILLE*  PTCLDY    46  44  91 CALM      29.97S
WARRENTON*     PTCLDY    46  38  74 SE5       29.95F

$$

VAZ055>057-220400-
NORTH AND CENTRAL PIEDMONT

CITY           SKY/WX    TMP DP  RH WIND       PRES   REMARKS
FREDERICKSBRG* PTCLDY    48  43  84 CALM      29.96F
STAFFORD*      CLOUDY    44  42  93 CALM      30.01S

$$

NCZ024-NYZ072-PAZ021-071-VAZ022-071-220400-
OTHER REGIONAL OBSERVATIONS

CITY           SKY/WX    TMP DP  RH WIND       PRES   REMARKS
NEW YORK CITY  CLOUDY    53  28  38 NW8       29.89S
PHILADELPHIA   CLOUDY    51  38  60 SW8       29.89F
PITTSBURGH     CLOUDY    48  23  37 NW18      30.01R
ROANOKE        PTCLDY    56  35  45 NW14      30.03R
RICHMOND       CLOUDY    56  45  66 NE3       29.96R
RALEIGH        CLOUDY    68  49  50 NE8       29.91F THUNDER

$$

ANZ530>537-220400-
MARINE OBSERVATIONS

STATION/POSITION TIME  TEMP    WIND        PRES
                       AIR SEA DIR/SP/G
                 (UTC) (F)     (DEG/KT/KT) (MB)
THOMAS PT LIGHT  0300   53 44  200/ 10/ 10   N/A
BALT KEY BRIDGE  0248   55     200/  7/  9 1013.0F
COVE POINT       0248   54     270/  9/  9 1014.9R
LEWISETTA        0248   48 48  250/  3/  3 1014.3R
SOLOMONS ISLAND  0242   47 45  280/  1/  2   N/A

$$





USA.gov is the U.S. government's official web portal to all federal, state and local government web resources and services.